Time,TemperatureF,DewpointF,PressureIn,WindDirection,WindDirectionDegrees,WindSpeedMPH,WindSpeedGustMPH,Humidity,HourlyPrecipIn,Conditions,Clouds,dailyrainin,SoftwareType,DateUTC
2013-06-15 00:03:00,56.0,-99.9,30.29,East,88,-999.0,1.0,-999,-99.99,,,-99.99,,2013-06-15 08:03:00,
2013-06-15 00:12:00,55.0,-99.9,30.29,SE,137,-999.0,2.0,-999,-99.99,,,-99.99,,2013-06-15 08:12:00,
2013-06-15 00:22:00,55.0,-99.9,30.29,West,274,-999.0,1.0,-999,-99.99,,,-99.99,,2013-06-15 08:22:00,
2013-06-15 00:34:00,54.0,-99.9,30.29,North,2,0.0,2.0,-999,-99.99,,,-99.99,,2013-06-15 08:34:00,
2013-06-15 00:43:00,54.0,-99.9,30.29,NNE,15,2.0,3.0,-999,-99.99,,,-99.99,,2013-06-15 08:43:00,
2013-06-15 00:53:00,54.0,-99.9,30.29,NNE,24,2.0,4.0,-999,-99.99,,,-99.99,,2013-06-15 08:53:00,
2013-06-15 01:02:00,54.0,-99.9,30.29,NNE,12,2.0,2.0,-999,-99.99,,,-99.99,,2013-06-15 09:02:00,
2013-06-15 01:12:00,53.0,-99.9,30.29,NNE,20,1.0,2.0,-999,-99.99,,,-99.99,,2013-06-15 09:12:00,
2013-06-15 01:22:00,53.0,-99.9,30.29,NNE,20,1.0,2.0,-999,-99.99,,,-99.99,,2013-06-15 09:22:00,
2013-06-15 01:33:00,51.0,-99.9,30.30,NNE,22,6.0,8.0,-999,-99.99,,,-99.99,,2013-06-15 09:33:00,
2013-06-15 01:43:00,51.0,-99.9,30.30,North,6,4.0,5.0,-999,-99.99,,,-99.99,,2013-06-15 09:43:00,
2013-06-15 01:52:00,51.0,-99.9,30.30,NNE,20,2.0,4.0,-999,-99.99,,,-99.99,,2013-06-15 09:52:00,
2013-06-15 02:02:00,51.0,-99.9,30.30,NE,40,2.0,2.0,-999,-99.99,,,-99.99,,2013-06-15 10:02:00,
2013-06-15 02:12:00,50.0,-99.9,30.30,NE,52,0.0,2.0,-999,-99.99,,,-99.99,,2013-06-15 10:12:00,
2013-06-15 02:23:00,50.0,-99.9,30.30,NE,52,0.0,2.0,-999,-99.99,,,-99.99,,2013-06-15 10:23:00,
2013-06-15 02:34:00,50.0,-99.9,30.30,NE,52,0.0,2.0,-999,-99.99,,,-99.99,,2013-06-15 10:34:00,
2013-06-15 02:44:00,49.0,-99.9,30.30,ESE,122,0.0,2.0,-999,-99.99,,,-99.99,,2013-06-15 10:44:00,
2013-06-15 02:53:00,49.0,-99.9,30.30,South,191,-999.0,2.0,-999,-99.99,,,-99.99,,2013-06-15 10:53:00,
2013-06-15 03:02:00,49.0,-99.9,30.30,South,186,1.0,3.0,-999,-99.99,,,-99.99,,2013-06-15 11:02:00,
2013-06-15 03:12:00,49.0,-99.9,30.30,North,-999,-999.0,-999.0,-999,-99.99,,,-99.99,,2013-06-15 11:12:00,
2013-06-15 03:22:00,49.0,-99.9,30.31,ENE,65,2.0,3.0,-999,-99.99,,,-99.99,,2013-06-15 11:22:00,
2013-06-15 03:33:00,49.0,-99.9,30.31,ESE,105,0.0,2.0,-999,-99.99,,,-99.99,,2013-06-15 11:33:00,
2013-06-15 03:43:00,49.0,-99.9,30.32,NNE,17,-999.0,2.0,-999,-99.99,,,-99.99,,2013-06-15 11:43:00,
2013-06-15 03:53:00,49.0,-99.9,30.32,NNE,19,1.0,3.0,-999,-99.99,,,-99.99,,2013-06-15 11:53:00,
2013-06-15 04:02:00,49.0,-99.9,30.32,NNE,23,1.0,3.0,-999,-99.99,,,-99.99,,2013-06-15 12:02:00,
2013-06-15 04:12:00,48.0,-99.9,30.32,ESE,110,0.0,1.0,-999,-99.99,,,-99.99,,2013-06-15 12:12:00,
2013-06-15 04:22:00,48.0,-99.9,30.32,SSE,164,3.0,3.0,-999,-99.99,,,-99.99,,2013-06-15 12:22:00,
2013-06-15 04:33:00,48.0,-99.9,30.32,South,188,4.0,5.0,-999,-99.99,,,-99.99,,2013-06-15 12:33:00,
2013-06-15 04:44:00,48.0,-99.9,30.31,South,172,5.0,6.0,-999,-99.99,,,-99.99,,2013-06-15 12:44:00,
2013-06-15 04:53:00,47.0,-99.9,30.31,ESE,110,-999.0,2.0,-999,-99.99,,,-99.99,,2013-06-15 12:53:00,
2013-06-15 05:02:00,47.0,-99.9,30.31,SSW,211,-999.0,2.0,-999,-99.99,,,-99.99,,2013-06-15 13:02:00,
2013-06-15 05:11:00,47.0,-99.9,30.31,ESE,114,2.0,4.0,-999,-99.99,,,-99.99,,2013-06-15 13:11:00,
2013-06-15 05:22:00,47.0,-99.9,30.31,SW,227,0.0,1.0,-999,-99.99,,,-99.99,,2013-06-15 13:22:00,
2013-06-15 05:33:00,47.0,-99.9,30.31,SSE,161,-999.0,2.0,-999,-99.99,,,-99.99,,2013-06-15 13:33:00,
2013-06-15 05:44:00,47.0,-99.9,30.31,SSE,161,-999.0,2.0,-999,-99.99,,,-99.99,,2013-06-15 13:44:00,
2013-06-15 05:53:00,47.0,-99.9,30.31,SSE,161,-999.0,2.0,-999,-99.99,,,-99.99,,2013-06-15 13:53:00,
2013-06-15 06:02:00,47.0,-99.9,30.31,SSE,161,-999.0,2.0,-999,-99.99,,,-99.99,,2013-06-15 14:02:00,
2013-06-15 06:43:00,46.0,-99.9,30.32,South,171,3.0,3.0,-999,-99.99,,,-99.99,,2013-06-15 14:43:00,
2013-06-15 06:54:00,46.0,-99.9,30.32,South,171,3.0,3.0,-999,-99.99,,,-99.99,,2013-06-15 14:54:00,
2013-06-15 07:02:00,46.0,-99.9,30.32,South,171,3.0,3.0,-999,-99.99,,,-99.99,,2013-06-15 15:02:00,
2013-06-15 07:12:00,46.0,-99.9,30.32,South,183,1.0,2.0,-999,-99.99,,,-99.99,,2013-06-15 15:12:00,
2013-06-15 07:22:00,46.0,-99.9,30.32,South,183,1.0,2.0,-999,-99.99,,,-99.99,,2013-06-15 15:22:00,
2013-06-15 07:33:00,46.0,-99.9,30.32,SE,146,1.0,2.0,-999,-99.99,,,-99.99,,2013-06-15 15:33:00,
2013-06-15 07:43:00,46.0,-99.9,30.32,East,96,0.0,3.0,-999,-99.99,,,-99.99,,2013-06-15 15:43:00,
2013-06-15 07:53:00,46.0,-99.9,30.32,East,96,0.0,3.0,-999,-99.99,,,-99.99,,2013-06-15 15:53:00,
2013-06-15 08:02:00,46.0,-99.9,30.32,East,96,0.0,3.0,-999,-99.99,,,-99.99,,2013-06-15 16:02:00,
2013-06-15 08:12:00,46.0,-99.9,30.32,East,84,0.0,2.0,-999,-99.99,,,-99.99,,2013-06-15 16:12:00,
2013-06-15 08:22:00,46.0,-99.9,30.32,East,84,0.0,2.0,-999,-99.99,,,-99.99,,2013-06-15 16:22:00,
2013-06-15 08:33:00,46.0,-99.9,30.32,SE,142,0.0,2.0,-999,-99.99,,,-99.99,,2013-06-15 16:33:00,
2013-06-15 08:43:00,46.0,-99.9,30.32,SW,214,2.0,3.0,-999,-99.99,,,-99.99,,2013-06-15 16:43:00,
2013-06-15 08:54:00,46.0,-99.9,30.32,SSE,165,2.0,3.0,-999,-99.99,,,-99.99,,2013-06-15 16:54:00,
2013-06-15 09:02:00,46.0,-99.9,30.32,South,191,1.0,3.0,-999,-99.99,,,-99.99,,2013-06-15 17:02:00,
2013-06-15 09:12:00,46.0,-99.9,30.32,South,170,2.0,3.0,-999,-99.99,,,-99.99,,2013-06-15 17:12:00,
2013-06-15 09:22:00,46.0,-99.9,30.32,South,170,2.0,3.0,-999,-99.99,,,-99.99,,2013-06-15 17:22:00,
2013-06-15 09:32:00,47.0,-99.9,30.32,SSW,203,2.0,3.0,-999,-99.99,,,-99.99,,2013-06-15 17:32:00,
2013-06-15 09:43:00,46.0,-99.9,30.32,South,177,2.0,3.0,-999,-99.99,,,-99.99,,2013-06-15 17:43:00,
2013-06-15 09:52:00,46.0,-99.9,30.32,South,169,1.0,2.0,-999,-99.99,,,-99.99,,2013-06-15 17:52:00,
2013-06-15 10:01:00,46.0,-99.9,30.32,South,169,1.0,2.0,-999,-99.99,,,-99.99,,2013-06-15 18:01:00,
2013-06-15 10:12:00,47.0,-99.9,30.32,SSW,210,2.0,2.0,-999,-99.99,,,-99.99,,2013-06-15 18:12:00,
2013-06-15 10:22:00,47.0,-99.9,30.32,NW,313,1.0,2.0,-999,-99.99,,,-99.99,,2013-06-15 18:22:00,
2013-06-15 10:33:00,47.0,-99.9,30.32,NW,312,2.0,3.0,-999,-99.99,,,-99.99,,2013-06-15 18:33:00,
2013-06-15 10:43:00,48.0,-99.9,30.32,NNW,344,3.0,6.0,-999,-99.99,,,-99.99,,2013-06-15 18:43:00,
2013-06-15 10:53:00,48.0,-99.9,30.32,North,4,3.0,6.0,-999,-99.99,,,-99.99,,2013-06-15 18:53:00,
2013-06-15 11:02:00,48.0,-99.9,30.32,North,5,4.0,6.0,-999,-99.99,,,-99.99,,2013-06-15 19:02:00,
2013-06-15 11:12:00,48.0,-99.9,30.32,North,5,4.0,6.0,-999,-99.99,,,-99.99,,2013-06-15 19:12:00,
2013-06-15 11:22:00,48.0,-99.9,30.32,North,5,4.0,6.0,-999,-99.99,,,-99.99,,2013-06-15 19:22:00,
2013-06-15 11:33:00,48.0,-99.9,30.32,North,5,4.0,6.0,-999,-99.99,,,-99.99,,2013-06-15 19:33:00,
2013-06-15 11:43:00,49.0,-99.9,30.32,NNW,342,3.0,6.0,-999,-99.99,,,-99.99,,2013-06-15 19:43:00,
2013-06-15 11:53:00,49.0,-99.9,30.32,NNW,345,4.0,6.0,-999,-99.99,,,-99.99,,2013-06-15 19:53:00,
2013-06-15 12:02:00,49.0,-99.9,30.32,North,357,5.0,8.0,-999,-99.99,,,-99.99,,2013-06-15 20:02:00,
2013-06-15 12:12:00,48.0,-99.9,30.32,North,356,6.0,8.0,-999,-99.99,,,-99.99,,2013-06-15 20:12:00,
2013-06-15 12:22:00,48.0,-99.9,30.32,NNW,348,6.0,9.0,-999,-99.99,,,-99.99,,2013-06-15 20:22:00,
2013-06-15 12:34:00,48.0,-99.9,30.32,North,352,6.0,9.0,-999,-99.99,,,-99.99,,2013-06-15 20:34:00,
2013-06-15 12:43:00,48.0,-99.9,30.32,North,349,6.0,8.0,-999,-99.99,,,-99.99,,2013-06-15 20:43:00,
2013-06-15 12:53:00,48.0,-99.9,30.32,NNW,347,5.0,9.0,-999,-99.99,,,-99.99,,2013-06-15 20:53:00,
2013-06-15 13:02:00,49.0,-99.9,30.32,NNW,341,4.0,6.0,-999,-99.99,,,-99.99,,2013-06-15 21:02:00,
2013-06-15 13:12:00,49.0,-99.9,30.32,NNW,341,4.0,6.0,-999,-99.99,,,-99.99,,2013-06-15 21:12:00,
2013-06-15 13:22:00,49.0,-99.9,30.32,North,11,4.0,8.0,-999,-99.99,,,-99.99,,2013-06-15 21:22:00,
2013-06-15 13:34:00,49.0,-99.9,30.32,North,11,4.0,8.0,-999,-99.99,,,-99.99,,2013-06-15 21:34:00,
2013-06-15 13:42:00,49.0,-99.9,30.32,North,359,5.0,7.0,-999,-99.99,,,-99.99,,2013-06-15 21:42:00,
2013-06-15 13:53:00,50.0,-99.9,30.32,North,5,4.0,8.0,-999,-99.99,,,-99.99,,2013-06-15 21:53:00,
2013-06-15 14:01:00,51.0,-99.9,30.32,NNE,15,3.0,6.0,-999,-99.99,,,-99.99,,2013-06-15 22:01:00,
2013-06-15 14:11:00,51.0,-99.9,30.32,NNE,15,3.0,6.0,-999,-99.99,,,-99.99,,2013-06-15 22:11:00,
2013-06-15 14:22:00,51.0,-99.9,30.32,NNE,15,3.0,6.0,-999,-99.99,,,-99.99,,2013-06-15 22:22:00,
2013-06-15 14:33:00,51.0,-99.9,30.32,NNE,15,3.0,6.0,-999,-99.99,,,-99.99,,2013-06-15 22:33:00,
2013-06-15 14:43:00,51.0,-99.9,30.32,NNW,346,3.0,6.0,-999,-99.99,,,-99.99,,2013-06-15 22:43:00,
2013-06-15 14:53:00,51.0,-99.9,30.31,North,349,5.0,8.0,-999,-99.99,,,-99.99,,2013-06-15 22:53:00,
2013-06-15 15:02:00,50.0,-99.9,30.31,NNW,347,6.0,9.0,-999,-99.99,,,-99.99,,2013-06-15 23:02:00,
2013-06-15 15:12:00,49.0,-99.9,30.31,North,355,6.0,10.0,-999,-99.99,,,-99.99,,2013-06-15 23:12:00,
2013-06-15 15:22:00,49.0,-99.9,30.31,North,355,6.0,9.0,-999,-99.99,,,-99.99,,2013-06-15 23:22:00,
2013-06-15 15:33:00,49.0,-99.9,30.31,North,355,6.0,9.0,-999,-99.99,,,-99.99,,2013-06-15 23:33:00,
2013-06-15 15:43:00,49.0,-99.9,30.31,North,357,7.0,10.0,-999,-99.99,,,-99.99,,2013-06-15 23:43:00,
2013-06-15 15:53:00,50.0,-99.9,30.31,NNW,347,5.0,9.0,-999,-99.99,,,-99.99,,2013-06-15 23:53:00,
2013-06-15 16:02:00,50.0,-99.9,30.31,North,355,6.0,9.0,-999,-99.99,,,-99.99,,2013-06-16 00:02:00,
2013-06-15 16:12:00,49.0,-99.9,30.31,North,351,6.0,9.0,-999,-99.99,,,-99.99,,2013-06-16 00:12:00,
2013-06-15 16:22:00,50.0,-99.9,30.31,NNW,345,5.0,9.0,-999,-99.99,,,-99.99,,2013-06-16 00:22:00,
2013-06-15 16:34:00,50.0,-99.9,30.31,North,357,8.0,9.0,-999,-99.99,,,-99.99,,2013-06-16 00:34:00,
2013-06-15 16:43:00,50.0,-99.9,30.30,North,354,6.0,9.0,-999,-99.99,,,-99.99,,2013-06-16 00:43:00,
2013-06-15 16:53:00,-999.0,-99.9,-100.00,North,1,5.0,8.0,-999,-99.99,,,-99.99,,2013-06-16 00:53:00,
2013-06-15 17:02:00,-999.0,-99.9,-100.00,North,350,6.0,8.0,-999,-99.99,,,-99.99,,2013-06-16 01:02:00,
2013-06-15 17:12:00,50.0,-99.9,30.30,North,356,6.0,8.0,-999,-99.99,,,-99.99,,2013-06-16 01:12:00,
2013-06-15 17:22:00,50.0,-99.9,30.30,North,356,6.0,8.0,-999,-99.99,,,-99.99,,2013-06-16 01:22:00,
2013-06-15 17:33:00,50.0,-99.9,30.30,North,356,6.0,8.0,-999,-99.99,,,-99.99,,2013-06-16 01:33:00,
2013-06-15 17:43:00,-999.0,-99.9,-100.00,North,6,3.0,8.0,-999,-99.99,,,-99.99,,2013-06-16 01:43:00,
2013-06-15 17:53:00,-999.0,-99.9,-100.00,NNW,347,3.0,6.0,-999,-99.99,,,-99.99,,2013-06-16 01:53:00,
2013-06-15 18:12:00,51.0,-99.9,30.29,North,356,6.0,7.0,-999,-99.99,,,-99.99,,2013-06-16 02:12:00,
2013-06-15 18:22:00,51.0,-99.9,30.29,North,354,7.0,9.0,-999,-99.99,,,-99.99,,2013-06-16 02:22:00,
2013-06-15 18:33:00,51.0,-99.9,30.29,North,355,7.0,8.0,-999,-99.99,,,-99.99,,2013-06-16 02:33:00,
2013-06-15 18:43:00,51.0,-99.9,30.29,North,351,5.0,7.0,-999,-99.99,,,-99.99,,2013-06-16 02:43:00,
2013-06-15 18:53:00,-999.0,-99.9,-100.00,North,351,5.0,7.0,-999,-99.99,,,-99.99,,2013-06-16 02:53:00,
2013-06-15 19:02:00,52.0,-99.9,30.28,North,356,5.0,7.0,-999,-99.99,,,-99.99,,2013-06-16 03:02:00,
2013-06-15 19:12:00,-999.0,-99.9,-100.00,North,2,4.0,6.0,-999,-99.99,,,-99.99,,2013-06-16 03:12:00,
2013-06-15 19:22:00,-999.0,-99.9,-100.00,North,2,4.0,6.0,-999,-99.99,,,-99.99,,2013-06-16 03:22:00,
2013-06-15 19:34:00,-999.0,-99.9,-100.00,North,2,4.0,6.0,-999,-99.99,,,-99.99,,2013-06-16 03:34:00,
2013-06-15 19:43:00,-999.0,-99.9,-100.00,North,356,6.0,6.0,-999,-99.99,,,-99.99,,2013-06-16 03:43:00,
2013-06-15 19:53:00,53.0,-99.9,30.27,North,355,5.0,7.0,-999,-99.99,,,-99.99,,2013-06-16 03:53:00,
2013-06-15 20:02:00,53.0,-99.9,30.27,North,356,4.0,6.0,-999,-99.99,,,-99.99,,2013-06-16 04:02:00,
2013-06-15 20:12:00,-999.0,-99.9,-100.00,North,358,4.0,4.0,-999,-99.99,,,-99.99,,2013-06-16 04:12:00,
2013-06-15 20:23:00,-999.0,-99.9,-100.00,North,358,4.0,4.0,-999,-99.99,,,-99.99,,2013-06-16 04:23:00,
2013-06-15 20:34:00,32.0,-99.9,-100.00,North,1,4.0,5.0,-999,-99.99,,,-99.99,,2013-06-16 04:34:00,
2013-06-15 20:43:00,55.0,-99.9,30.27,North,358,4.0,5.0,-999,-99.99,,,-99.99,,2013-06-16 04:43:00,
2013-06-15 20:53:00,53.0,-99.9,30.27,North,357,4.0,6.0,-999,-99.99,,,-99.99,,2013-06-16 04:53:00,
2013-06-15 21:02:00,53.0,-99.9,30.27,North,1,5.0,6.0,-999,-99.99,,,-99.99,,2013-06-16 05:02:00,
2013-06-15 21:12:00,-999.0,-99.9,-100.00,North,356,4.0,6.0,-999,-99.99,,,-99.99,,2013-06-16 05:12:00,
2013-06-15 21:22:00,-999.0,-99.9,-100.00,North,3,3.0,4.0,-999,-99.99,,,-99.99,,2013-06-16 05:22:00,
2013-06-15 21:34:00,-999.0,-99.9,-100.00,North,358,3.0,3.0,-999,-99.99,,,-99.99,,2013-06-16 05:34:00,
2013-06-15 21:43:00,-999.0,-99.9,-100.00,North,3,2.0,3.0,-999,-99.99,,,-99.99,,2013-06-16 05:43:00,
2013-06-15 21:52:00,54.0,-99.9,30.26,North,357,3.0,4.0,-999,-99.99,,,-99.99,,2013-06-16 05:52:00,
2013-06-15 22:12:00,54.0,-99.9,30.26,North,5,1.0,2.0,-999,-99.99,,,-99.99,,2013-06-16 06:12:00,
2013-06-15 22:23:00,54.0,-99.9,30.26,NNE,22,-999.0,1.0,-999,-99.99,,,-99.99,,2013-06-16 06:23:00,
2013-06-15 22:33:00,54.0,-99.9,30.26,North,8,-999.0,0.0,-999,-99.99,,,-99.99,,2013-06-16 06:33:00,
2013-06-15 22:43:00,54.0,-99.9,30.26,NNW,340,-999.0,1.0,-999,-99.99,,,-99.99,,2013-06-16 06:43:00,
2013-06-15 22:52:00,-999.0,-99.9,-100.00,North,354,1.0,1.0,-999,-99.99,,,-99.99,,2013-06-16 06:52:00,
2013-06-15 23:01:00,-999.0,-99.9,30.26,NNE,30,2.0,2.0,-999,-99.99,,,-99.99,,2013-06-16 07:01:00,
2013-06-15 23:12:00,-999.0,-99.9,30.26,North,9,2.0,2.0,-999,-99.99,,,-99.99,,2013-06-16 07:12:00,
2013-06-15 23:23:00,-999.0,-99.9,30.26,NNE,19,2.0,2.0,-999,-99.99,,,-99.99,,2013-06-16 07:23:00,
2013-06-15 23:33:00,-999.0,-99.9,30.26,NNE,19,2.0,2.0,-999,-99.99,,,-99.99,,2013-06-16 07:33:00,